User: anonymous   Login
Location: Breitenfeld
(46.8500°N, 15.6333°E)
Time: 10:52:58
(UTC+00:00)
Language:

deb Delta - Orbit

View from above orbital plane
View from above orbital plane
View from above satellite
View from above satellite

Ground track
Ground track

The orbit data is extracted from the following two-line orbital elements,

1 21544U 75052GY  21295.90108489  .00017403  00000-0  17483-2 0  9993
2 21544  99.9714 265.1659 0068179 312.7171  46.8311 14.89626278571913
Epoch (UTC): 22 October 2021 21:37:33
Eccentricity: 0.0068179
inclination: 99.9714°
perigee height: 551 km
apogee height: 646 km
right ascension of ascending node: 265.1659°
argument of perigee: 312.7171°
revolutions per day: 14.89626278
mean anomaly at epoch: 46.8311°
orbit number at epoch: 57191

The dashed part of the orbit path shows where the satellite is in the earth's shadow,  

DLR